Location: Unspecified
(34.1267°N, 0.0000°E)
Time: 01:42:45
(UTC+00:00)

AO-27 - Visible Passes

Search period start: 05 April 2026 00:00
Search period end: 15 April 2026 00:00
Orbit: 783 x 794 km, 98.7° (Epoch: 29 March)

Date Brightness Start Highest point End Pass type
(mag) Time Alt. Az. Time Alt. Az. Time Alt. Az.
5 Apr 9.7 20:19:25 14° NE 20:19:25 14° NE 20:20:50 10° NNE visible
5 Apr 10.0 22:00:06 20° NNW 22:00:06 20° NNW 22:01:41 10° NNW visible
6 Apr 9.4 21:29:41 26° N 21:29:41 26° N 21:31:53 10° N visible
7 Apr 9.3 20:59:17 25° NNE 20:59:17 25° NNE 21:01:40 10° N visible
7 Apr 10.6 22:39:58 11° NW 22:39:58 11° NW 22:40:12 10° NW visible
8 Apr 9.5 20:28:53 17° NE 20:28:53 17° NE 20:30:55 10° NNE visible
8 Apr 10.0 22:09:34 19° NW 22:09:34 19° NW 22:11:10 10° NNW visible
9 Apr 9.4 21:39:09 28° NNW 21:39:09 28° NNW 21:41:31 10° NNW visible
10 Apr 9.1 21:08:45 29° NNE 21:08:45 29° NNE 21:11:25 10° N visible
11 Apr 9.3 20:38:20 21° NE 20:38:20 21° NE 20:40:53 10° NNE visible
11 Apr 10.1 22:19:01 18° NW 22:19:01 18° NW 22:20:36 10° NW visible
12 Apr 9.7 20:07:56 12° NE 20:07:56 12° NE 20:09:22 10° NE visible
12 Apr 9.4 21:48:37 29° NNW 21:48:37 29° NNW 21:51:07 10° NNW visible
13 Apr 8.9 21:18:13 33° N 21:18:13 33° N 21:21:09 10° N visible
14 Apr 9.1 20:47:48 26° NE 20:47:48 26° NE 20:50:45 10° N visible
14 Apr 10.2 22:28:29 17° NW 22:28:29 17° NW 22:29:57 10° NW visible
